Location: *
(34.6903°N, 135.5184°E)
Time: 12:40:54
(UTC+00:00)

Centaur D-1AR AC-36 - Pass Details

Date: 22 September 2019
Orbit: 530 x 36373 km, 22.0° (Epoch: 15 October)

Event Time Altitude Azimuth Distance (km) Brightness Sun altitude
Exits shadow 18:04:45 24° 151° (SSE) 2,073 4.2 -32.9°
Drops below altitude 10° 18:11:41 10° 113° (ESE) 4,950 6.6 -31.6°
Sets 18:21:23 0° 103° (ESE) 9,009 8.2 -29.8°
